Weather in Abrikosovka

Russia / Republic of Crimea     45°06′32″N   35°06′04″E
temp.,
°C
wind,
m/s
gust,
m/s
humid.,
%
clouds,
%
prec.,
mm/h
press.,
hPa
HPBL,
m
3 march, wed
wed300:000w278251 0.0 1024216
03:00+1wsw4128141 0.0 1023442
06:00+2nnw6119379 0.0 1022639
09:00+1nw7118289 0.1 10241091
12:00+3nnw797485 0.1 1025899
15:00+5nw695758 0.1 10261339
18:00+4nnw48590 0.0 1026745
21:00+2wnw23710 0.0 102873
4 march, thu
thu400:00+1w237831 0.0 102854
03:00+1wsw237315 0.0 102827
06:00+1sw22700 0.0 102622
09:00+4ssw36662 0.0 1026495
12:00+6ssw455810 0.0 1025927
15:00+7ssw44565 0.0 1023854
18:00+4ssw58752 0.0 1021481
21:00+3ssw59847 0.0 1020377
5 march, fri
fri500:00+2ssw6108617 0.0 1019360
03:00+2ssw6108815 0.0 1018318
06:00+2ssw599112 0.0 1017266
09:00+4ssw588615 0.0 1017344
12:00+7ssw697216 0.0 1016433
15:00+8ssw696819 0.0 1014446
18:00+6ssw698420 0.0 1014366
21:00+5ssw7118860 0.0 1014324
6 march, sat
sat600:00+5ssw6109098 0.0 1014271
03:00+5sw347988 0.0 101465
06:00+6sw3363100 0.0 101443
09:00+5nnw3485100 0.0 1016227
12:00+4n4589100 0.0 1017346
15:00+2n5893100 0.2 1018403
18:00−1nnw71290100 1.0 1019775
21:00+1nnw71063100 1.0 1023996
7 march, sun
sun700:00−1nnw61162100 0.0 1025825
03:00−3nnw5115756 0.0 1027619
06:00−4nw38580 0.0 1028365
09:00−1nw35420 0.0 1028911
12:00+2nw46370 0.0 10281432
15:00+3w46390 0.0 10261667
18:00+1wsw365633 0.0 1024543
21:00−1sw126632 0.0 102345